#timestamp,LO_Frequency,Hit,StdDev 
1630216815.4,286046996.5,N
1630216835.2,286046999.3,N
1630216855.0,286047000.3,N
1630216855.9,286047000.3,N
1630216875.8,286047000.5,N
1630216895.6,286047000.6,N
1630216915.5,286047000.3,N
1630216935.3,286047011.9,Y
1630216955.1,286046996.9,P
1630216975.9,286046997.0,P
1630216995.7,286046997.1,P
1630217015.6,286046994.5,Y
1630217035.4,286046996.4,P
1630217055.2,286046991.9,P
1630217075.1,286046990.8,P
1630217076.0,286046990.8,Y
1630217095.8,286046997.4,P
1630217115.6,286046999.0,N
1630217135.5,286046998.8,N
1630217155.3,286046998.3,N
1630217175.2,286046997.8,N
1630217195.9,286046995.3,N
1630217215.7,286046995.3,N
1630217235.6,286046999.0,N
1630217255.4,286046999.6,N
1630217275.2,286046993.4,Y
1630217295.1,286046996.0,P
1630217296.0,286046996.0,P
1630217315.8,286046994.0,P
1630217335.7,286046994.4,Y
1630217355.5,286046998.4,P
1630217375.3,286047000.5,N
1630217395.2,286046999.4,N
1630217415.0,286046999.5,N
1630217415.9,286046999.5,N
1630217435.7,286046996.6,N
1630217455.6,286046996.5,N
1630217475.4,286046996.7,N
1630217495.3,286046996.5,N
1630217515.1,286047001.2,N
1630217516.0,286047001.2,N
1630217535.8,286046999.8,N
1630217555.7,286047002.1,N
1630217575.5,286047001.7,N
1630217595.3,286047005.6,N
1630217615.2,286047006.9,N
1630217635.0,286047010.8,Y
1630217635.9,286047010.8,P
1630217655.8,286047009.6,N
1630217675.6,286047012.3,N
1630217695.4,286047011.1,N
1630217715.3,286047009.6,N
1630217735.1,286047007.7,N
1630217755.9,286047006.2,N
1630217775.7,286047006.8,N
1630217795.5,286047008.9,N
1630217815.4,286047007.2,N
1630217835.2,286047003.4,N
1630217855.0,286047005.1,N
1630217855.9,286047005.1,N
1630217875.8,286047001.9,N
1630217895.6,286046999.4,N
1630217915.5,286046992.0,N
1630217935.3,286046990.6,N
1630217955.1,286046993.3,N
1630217975.9,286046996.9,N
1630217995.7,286046998.4,N
1630218015.5,286046999.5,N
1630218035.4,286046998.1,N
1630218055.2,286047002.2,N
1630218075.0,286047004.7,N
1630218076.0,286047004.7,N
1630218095.8,286047004.0,N
1630218115.6,286047000.3,N
1630218135.5,286046997.2,N
1630218155.3,286046994.4,N
1630218175.1,286046991.5,N
1630218195.9,286046989.2,N
1630218215.7,286046988.6,N
1630218235.6,286046986.3,N
1630218255.4,286046986.5,N
1630218275.2,286046988.1,N
1630218295.1,286046989.4,N
1630218296.0,286046989.4,N
1630218315.8,286046993.2,N
1630218335.7,286046993.0,N
1630218355.5,286046990.2,N
1630218375.3,286046994.3,N
1630218395.2,286046997.1,N
1630218415.0,286046998.6,N
1630218415.9,286046998.6,N
1630218435.8,286046998.4,N
1630218455.6,286046995.2,N
1630218475.4,286046989.4,N
1630218495.3,286046987.4,N
1630218515.1,286046988.5,N
1630218535.8,286046988.5,N
1630218555.7,286046991.0,N
1630218575.5,286046993.0,N
1630218595.4,286046996.3,N
1630218615.2,286046987.7,N
1630218635.0,286046986.9,N
1630218635.9,286046986.9,N
1630218655.8,286046986.3,Y
1630218675.6,286046995.6,P
1630218695.5,286046994.0,P
1630218715.3,286046990.6,P
1630218735.1,286046992.5,Y
1630218755.9,286047001.8,P
1630218775.7,286047004.7,N
1630218795.5,286047008.0,N
1630218815.4,286047007.9,N
1630218835.2,286047006.8,N
1630218855.0,286047004.0,N
1630218856.0,286047004.0,N
1630218875.8,286047006.0,N
1630218895.6,286047004.1,N
1630218915.5,286047002.3,N
1630218935.3,286047008.5,N
1630218955.1,286047010.0,N
1630218975.9,286047008.4,N
1630218995.7,286047005.0,N
1630219015.5,286047006.2,N
1630219035.4,286047005.9,N
1630219055.2,286047003.3,N
1630219075.1,286046999.1,N
1630219076.0,286046999.1,N
1630219095.8,286046997.1,N
1630219115.6,286046997.7,N
1630219135.5,286046996.9,N
1630219155.3,286047000.6,N
1630219175.2,286047000.4,N
1630219195.9,286046999.6,N
1630219215.7,286047000.4,N
1630219235.6,286047003.1,N
1630219255.4,286047006.6,N
1630219275.2,286047006.2,N
1630219295.1,286047007.8,N
1630219296.0,286047007.8,N
1630219315.8,286047008.2,N
1630219335.7,286047008.3,N
1630219355.5,286047008.2,N
1630219375.3,286047005.7,N
1630219395.2,286047003.2,N
1630219415.0,286047004.9,N
1630219415.9,286047004.9,N
1630219435.8,286046998.7,N
1630219455.6,286046994.3,N
1630219475.4,286046991.4,N
1630219495.3,286046989.8,N
1630219515.1,286046986.0,N
1630219535.9,286046979.5,Y
1630219555.7,286046974.7,P
1630219575.5,286046976.0,N
1630219595.4,286046977.8,N
1630219615.2,286046978.1,N
1630219635.0,286046980.8,N
1630219635.9,286046980.8,N
1630219655.8,286046983.2,N
1630219675.6,286046983.0,N
1630219695.5,286046982.7,N
1630219715.3,286046985.1,N
1630219735.1,286046983.6,N
1630219755.9,286046984.7,N
1630219775.7,286046980.5,Y
1630219795.5,286046995.2,P
1630219815.4,286046998.6,N
1630219835.2,286046998.5,N
1630219855.1,286046997.4,N
1630219856.0,286046997.4,N
1630219875.8,286046997.6,N
1630219895.6,286046993.3,N
1630219915.5,286046993.4,N
1630219935.3,286046994.6,N
1630219955.1,286046992.1,N
1630219975.9,286046989.1,N
1630219995.7,286046992.6,N
1630220015.6,286046994.9,N
1630220035.4,286047000.8,N
1630220055.2,286046999.3,N
1630220075.1,286046998.1,N
1630220076.0,286046998.1,N
1630220095.8,286046998.2,N
1630220115.6,286046998.3,N
1630220135.5,286047000.4,N
1630220155.3,286047001.9,N
1630220175.2,286047004.3,N
1630220195.9,286046999.0,N
1630220215.7,286046992.2,N
1630220235.6,286046985.6,Y
1630220255.4,286046987.9,P
1630220305.3,286046991.4,E
1630220315.2,286046996.4,N
1630220335.0,286046999.7,P
1630220335.9,286046999.7,N
1630220355.8,286047006.0,Y
1630220375.6,286047006.7,P
1630220395.5,286047006.2,N
